Back to Top

Language: 

My Weather Underground Personal Weather Station Historical Data with Graphs...

Delerius Weather Station Historical Data
Daily Summary for January 13, 2017 Units:  English    Metric   Both
« Previous Day
Next Day »
Daily Weekly Monthly Yearly Custom
  High: Low: Average:
Temperature: 42.1 °F 32.1 °F 36.1 °F
Dew Point: 34.2 °F 24.5 °F 30.2 °F
Humidity: 94 % 68 % 79 %
Wind Speed: 23.0 mph 5.0 mph 10.9 mph
Wind Gust: 40.0 mph - -
Wind:- - WNW
Pressure: 30.00 in 29.49 in -
Precipitation: 0.05 in    
Historical Graphs
 
 
Tabular Data for January 13, 2017
Time Temperature Dew Point Pressure Wind Wind Speed Wind Gust Humidity Rainfall Rate (Hourly) solar Conditions
00:00 34.2 °F 31.0 °F 29.49 in WNW 9.0 mph 35.0 mph 88 % 0.00 in 0 W/m2
00:05 34.1 °F 30.9 °F 29.50 in NW 9.0 mph 35.0 mph 88 % 0.00 in 0 W/m2
00:15 34.1 °F 30.9 °F 29.50 in WNW 8.0 mph 11.0 mph 88 % 0.00 in 0 W/m2
00:20 34.0 °F 30.8 °F 29.50 in NW 7.0 mph 12.0 mph 88 % 0.00 in 0 W/m2
00:25 34.0 °F 30.8 °F 29.50 in WNW 9.0 mph 12.0 mph 88 % 0.00 in 0 W/m2
00:30 34.0 °F 30.8 °F 29.51 in WNW 9.0 mph 9.0 mph 88 % 0.00 in 0 W/m2
00:40 33.8 °F 30.6 °F 29.51 in WNW 8.0 mph 11.0 mph 88 % 0.00 in 0 W/m2
00:45 33.8 °F 30.6 °F 29.52 in West 9.0 mph 11.0 mph 88 % 0.00 in 0 W/m2
00:50 33.7 °F 30.5 °F 29.52 in WNW 8.0 mph 8.0 mph 88 % 0.00 in 0 W/m2
00:55 33.7 °F 30.5 °F 29.52 in NW 9.0 mph 9.0 mph 88 % 0.00 in 0 W/m2
01:00 33.7 °F 30.5 °F 29.53 in NW 9.0 mph 10.0 mph 88 % 0.00 in 0 W/m2
01:05 33.6 °F 30.1 °F 29.53 in WNW 8.0 mph 18.0 mph 87 % 0.00 in 0 W/m2
01:15 33.6 °F 30.1 °F 29.54 in WNW 8.0 mph 11.0 mph 87 % 0.00 in 0 W/m2
01:20 33.5 °F 30.0 °F 29.53 in WNW 7.0 mph 7.0 mph 87 % 0.00 in 0 W/m2
01:25 33.4 °F 29.9 °F 29.54 in WNW 7.0 mph 9.0 mph 87 % 0.00 in 0 W/m2
01:30 33.2 °F 29.8 °F 29.54 in WNW 7.0 mph 18.0 mph 87 % 0.00 in 0 W/m2
01:35 33.1 °F 29.7 °F 29.54 in West 8.0 mph 18.0 mph 87 % 0.00 in 0 W/m2
01:40 33.0 °F 29.6 °F 29.54 in West 8.0 mph 8.0 mph 87 % 0.00 in 0 W/m2
01:45 32.9 °F 29.5 °F 29.55 in WNW 8.0 mph 18.0 mph 87 % 0.00 in 0 W/m2
01:55 32.8 °F 29.4 °F 29.55 in NW 6.0 mph 18.0 mph 87 % 0.00 in 0 W/m2
02:00 32.7 °F 29.3 °F 29.55 in WNW 5.0 mph 18.0 mph 87 % 0.00 in 0 W/m2
02:05 32.6 °F 29.2 °F 29.55 in WNW 6.0 mph 18.0 mph 87 % 0.00 in 0 W/m2
02:10 32.6 °F 29.2 °F 29.56 in WNW 7.0 mph 18.0 mph 87 % 0.00 in 0 W/m2
02:15 32.6 °F 29.2 °F 29.56 in NW 8.0 mph 18.0 mph 87 % 0.00 in 0 W/m2
02:20 32.6 °F 29.2 °F 29.56 in WNW 9.0 mph 18.0 mph 87 % 0.00 in 0 W/m2
02:30 32.8 °F 29.4 °F 29.57 in WNW 9.0 mph 18.0 mph 87 % 0.00 in 0 W/m2
02:35 32.8 °F 29.4 °F 29.57 in WNW 9.0 mph 18.0 mph 87 % 0.00 in 0 W/m2
02:40 32.8 °F 29.1 °F 29.57 in WNW 10.0 mph 18.0 mph 86 % 0.00 in 0 W/m2
02:45 32.8 °F 29.1 °F 29.57 in West 9.0 mph 18.0 mph 86 % 0.00 in 0 W/m2
02:50 32.8 °F 29.1 °F 29.58 in NW 9.0 mph 9.0 mph 86 % 0.00 in 0 W/m2
02:55 32.8 °F 29.1 °F 29.57 in WNW 8.0 mph 18.0 mph 86 % 0.00 in 0 W/m2
03:05 32.6 °F 28.6 °F 29.57 in West 7.0 mph 18.0 mph 85 % 0.00 in 0 W/m2
03:10 32.6 °F 28.6 °F 29.57 in WNW 7.0 mph 18.0 mph 85 % 0.00 in 0 W/m2
03:15 32.8 °F 28.5 °F 29.57 in WNW 10.0 mph 18.0 mph 84 % 0.00 in 0 W/m2
03:20 33.0 °F 28.7 °F 29.58 in WNW 12.0 mph 18.0 mph 84 % 0.00 in 0 W/m2
03:25 33.3 °F 28.7 °F 29.57 in WNW 12.0 mph 18.0 mph 83 % 0.00 in 0 W/m2
03:35 33.5 °F 28.6 °F 29.57 in WNW 13.0 mph 18.0 mph 82 % 0.00 in 0 W/m2
03:40 33.6 °F 28.4 °F 29.58 in WNW 13.0 mph 13.0 mph 81 % 0.00 in 0 W/m2
03:50 33.5 °F 28.6 °F 29.58 in WNW 13.0 mph 13.0 mph 82 % 0.00 in 0 W/m2
03:55 33.4 °F 28.5 °F 29.58 in WNW 12.0 mph 18.0 mph 82 % 0.00 in 0 W/m2
04:00 33.4 °F 28.5 °F 29.57 in WNW 11.0 mph 18.0 mph 82 % 0.00 in 0 W/m2
04:05 33.4 °F 28.2 °F 29.57 in West 11.0 mph 18.0 mph 81 % 0.00 in 0 W/m2
04:10 33.5 °F 28.0 °F 29.57 in WNW 11.0 mph 18.0 mph 80 % 0.00 in 0 W/m2
04:20 33.8 °F 27.7 °F 29.57 in West 12.0 mph 18.0 mph 78 % 0.00 in 0 W/m2
04:25 33.9 °F 27.4 °F 29.58 in WNW 13.0 mph 18.0 mph 77 % 0.00 in 0 W/m2
04:30 33.9 °F 27.4 °F 29.58 in West 12.0 mph 12.0 mph 77 % 0.00 in 0 W/m2
04:35 34.0 °F 27.9 °F 29.58 in WNW 13.0 mph 26.0 mph 78 % 0.00 in 0 W/m2
04:40 34.0 °F 28.2 °F 29.58 in WNW 14.0 mph 14.0 mph 79 % 0.00 in 0 W/m2
04:45 34.1 °F 28.6 °F 29.58 in NW 13.0 mph 18.0 mph 80 % 0.00 in 0 W/m2
04:54 34.0 °F 28.8 °F 29.57 in WNW 12.0 mph 18.0 mph 81 % 0.00 in 0 W/m2
05:00 34.1 °F 28.9 °F 29.58 in WNW 13.0 mph 18.0 mph 81 % 0.00 in 0 W/m2
05:05 34.4 °F 28.9 °F 29.57 in West 17.0 mph 21.0 mph 80 % 0.00 in 0 W/m2
05:10 34.6 °F 29.1 °F 29.57 in WNW 17.0 mph 19.0 mph 80 % 0.00 in 0 W/m2
05:15 34.7 °F 28.9 °F 29.57 in NW 17.0 mph 19.0 mph 79 % 0.00 in 0 W/m2
05:20 34.9 °F 28.7 °F 29.57 in NW 18.0 mph 18.0 mph 78 % 0.00 in 0 W/m2
05:30 35.0 °F 29.1 °F 29.57 in West 15.0 mph 15.0 mph 79 % 0.00 in 0 W/m2
05:40 35.0 °F 29.5 °F 29.56 in WNW 14.0 mph 18.0 mph 80 % 0.00 in 0 W/m2
05:45 35.0 °F 29.5 °F 29.56 in WNW 15.0 mph 18.0 mph 80 % 0.00 in 0 W/m2
05:50 35.1 °F 29.9 °F 29.55 in WSW 15.0 mph 15.0 mph 81 % 0.00 in 0 W/m2
05:55 35.2 °F 30.0 °F 29.55 in WSW 16.0 mph 16.0 mph 81 % 0.00 in 0 W/m2
06:00 35.2 °F 30.6 °F 29.55 in WNW 16.0 mph 21.0 mph 83 % 0.00 in 0 W/m2
06:05 35.1 °F 30.8 °F 29.56 in WNW 19.0 mph 26.0 mph 84 % 0.00 in 0 W/m2
06:15 35.1 °F 31.0 °F 29.55 in WNW 19.0 mph 40.0 mph 85 % 0.00 in 0 W/m2
06:20 35.2 °F 31.1 °F 29.55 in WNW 20.0 mph 20.0 mph 85 % 0.00 in 0 W/m2
06:25 35.1 °F 31.3 °F 29.56 in NW 20.0 mph 31.0 mph 86 % 0.00 in 0 W/m2
06:30 35.1 °F 31.6 °F 29.56 in WNW 19.0 mph 23.0 mph 87 % 0.00 in 0 W/m2
06:35 35.1 °F 31.9 °F 29.56 in WNW 19.0 mph 23.0 mph 88 % 0.00 in 0 W/m2
06:40 35.1 °F 31.9 °F 29.56 in WNW 21.0 mph 28.0 mph 88 % 0.00 in 0 W/m2
06:50 35.1 °F 32.2 °F 29.57 in WNW 20.0 mph 25.0 mph 89 % 0.00 in 0 W/m2
06:55 34.9 °F 32.3 °F 29.56 in WNW 20.0 mph 25.0 mph 90 % 0.00 in 0 W/m2
07:00 34.7 °F 32.3 °F 29.56 in WNW 18.0 mph 28.0 mph 91 % 0.00 in 0 W/m2
07:05 34.7 °F 32.6 °F 29.57 in West 19.0 mph 28.0 mph 92 % 0.00 in 0 W/m2
07:10 34.7 °F 32.6 °F 29.57 in WNW 21.0 mph 21.0 mph 92 % 0.00 in 0 W/m2
07:15 34.6 °F 32.5 °F 29.57 in WNW 23.0 mph 29.0 mph 92 % 0.00 in 0 W/m2
07:20 34.5 °F 32.7 °F 29.57 in WNW 22.0 mph 22.0 mph 93 % 0.00 in 0 W/m2
07:30 34.6 °F 32.8 °F 29.57 in WNW 19.0 mph 25.0 mph 93 % 0.09 in 0 W/m2
07:35 34.8 °F 33.2 °F 29.57 in WNW 20.0 mph 25.0 mph 94 % 0.09 in 0 W/m2
07:40 34.9 °F 33.1 °F 29.58 in WNW 19.0 mph 25.0 mph 93 % 0.07 in 0 W/m2
07:45 35.1 °F 33.3 °F 29.58 in West 19.0 mph 25.0 mph 93 % 0.07 in 0 W/m2
07:50 35.3 °F 33.5 °F 29.58 in WNW 20.0 mph 20.0 mph 93 % 0.07 in 0 W/m2
07:55 35.4 °F 33.6 °F 29.59 in WNW 18.0 mph 20.0 mph 93 % 0.07 in 0 W/m2
08:00 35.7 °F 33.9 °F 29.59 in WNW 17.0 mph 17.0 mph 93 % 0.05 in 0 W/m2
08:10 36.0 °F 33.9 °F 29.59 in WNW 16.0 mph 16.0 mph 92 % 0.00 in 0 W/m2
08:15 36.1 °F 33.7 °F 29.59 in WNW 16.0 mph 18.0 mph 91 % 0.00 in 0 W/m2
08:20 36.3 °F 33.9 °F 29.60 in WNW 17.0 mph 17.0 mph 91 % 0.00 in 0 W/m2
08:25 36.4 °F 33.7 °F 29.61 in WNW 15.0 mph 18.0 mph 90 % 0.00 in 7 W/m2
08:30 36.5 °F 33.6 °F 29.61 in NW 15.0 mph 22.0 mph 89 % 0.00 in 11 W/m2
08:35 36.8 °F 33.6 °F 29.62 in WNW 16.0 mph 22.0 mph 88 % 0.00 in 11 W/m2
08:40 37.0 °F 33.5 °F 29.62 in WNW 16.0 mph 24.0 mph 87 % 0.00 in 11 W/m2
08:50 37.3 °F 33.2 °F 29.63 in WNW 16.0 mph 16.0 mph 85 % 0.00 in 14 W/m2
08:55 37.5 °F 33.1 °F 29.64 in WNW 16.0 mph 18.0 mph 84 % 0.00 in 12 W/m2
09:00 37.5 °F 33.1 °F 29.64 in NW 15.0 mph 18.0 mph 84 % 0.00 in 16 W/m2
09:05 37.5 °F 32.8 °F 29.65 in NNW 15.0 mph 24.0 mph 83 % 0.00 in 14 W/m2
09:10 37.6 °F 32.6 °F 29.65 in NW 16.0 mph 16.0 mph 82 % 0.00 in 16 W/m2
09:15 37.6 °F 32.6 °F 29.66 in NW 14.0 mph 18.0 mph 82 % 0.00 in 16 W/m2
09:25 37.5 °F 32.5 °F 29.67 in West 14.0 mph 18.0 mph 82 % 0.00 in 26 W/m2
09:35 37.7 °F 33.0 °F 29.69 in West 13.0 mph 18.0 mph 83 % 0.00 in 160 W/m2
09:40 38.0 °F 33.3 °F 29.69 in WNW 14.0 mph 18.0 mph 83 % 0.00 in 153 W/m2
09:45 38.3 °F 33.3 °F 29.70 in NW 15.0 mph 18.0 mph 82 % 0.00 in 158 W/m2
09:50 38.6 °F 33.3 °F 29.70 in West 15.0 mph 21.0 mph 81 % 0.00 in 162 W/m2
09:55 38.9 °F 33.3 °F 29.71 in WNW 15.0 mph 21.0 mph 80 % 0.00 in 197 W/m2
10:00 39.2 °F 33.2 °F 29.72 in WNW 14.0 mph 14.0 mph 79 % 0.00 in 207 W/m2
10:10 39.0 °F 32.7 °F 29.73 in West 14.0 mph 14.0 mph 78 % 0.00 in 67 W/m2
10:15 38.9 °F 32.6 °F 29.73 in West 13.0 mph 18.0 mph 78 % 0.00 in 70 W/m2
10:20 38.9 °F 32.9 °F 29.73 in West 12.0 mph 18.0 mph 79 % 0.00 in 95 W/m2
10:30 38.8 °F 32.8 °F 29.74 in West 12.0 mph 12.0 mph 79 % 0.00 in 84 W/m2
10:35 38.8 °F 32.8 °F 29.74 in NW 11.0 mph 18.0 mph 79 % 0.00 in 69 W/m2
10:40 38.7 °F 32.7 °F 29.75 in WNW 11.0 mph 18.0 mph 79 % 0.00 in 79 W/m2
10:45 38.7 °F 33.1 °F 29.75 in WNW 11.0 mph 18.0 mph 80 % 0.00 in 125 W/m2
10:50 38.7 °F 32.7 °F 29.75 in WNW 12.0 mph 18.0 mph 79 % 0.00 in 105 W/m2
10:55 38.8 °F 32.8 °F 29.75 in NW 12.0 mph 18.0 mph 79 % 0.00 in 114 W/m2
11:05 39.4 °F 33.4 °F 29.75 in WNW 13.0 mph 14.0 mph 79 % 0.00 in 294 W/m2
11:10 40.0 °F 33.7 °F 29.76 in WNW 14.0 mph 14.0 mph 78 % 0.00 in 308 W/m2
11:15 40.5 °F 33.9 °F 29.76 in WNW 13.0 mph 15.0 mph 77 % 0.00 in 320 W/m2
11:20 41.0 °F 34.0 °F 29.76 in NW 14.0 mph 18.0 mph 76 % 0.00 in 341 W/m2
11:25 41.4 °F 34.1 °F 29.77 in WNW 14.0 mph 18.0 mph 75 % 0.00 in 385 W/m2
11:30 41.9 °F 34.2 °F 29.77 in WNW 12.0 mph 18.0 mph 74 % 0.00 in 390 W/m2
11:40 42.1 °F 34.1 °F 29.78 in NW 11.0 mph 11.0 mph 73 % 0.00 in 178 W/m2
11:45 41.9 °F 33.5 °F 29.78 in WNW 12.0 mph 12.0 mph 72 % 0.00 in 116 W/m2
11:50 41.5 °F 33.1 °F 29.78 in WNW 12.0 mph 18.0 mph 72 % 0.00 in 125 W/m2
11:55 41.3 °F 33.3 °F 29.79 in NW 11.0 mph 18.0 mph 73 % 0.00 in 95 W/m2
12:00 41.0 °F 33.3 °F 29.79 in WNW 11.0 mph 18.0 mph 74 % 0.00 in 97 W/m2
12:05 40.8 °F 33.2 °F 29.80 in NNW 12.0 mph 18.0 mph 74 % 0.00 in 149 W/m2
12:10 40.7 °F 33.1 °F 29.79 in WNW 13.0 mph 28.0 mph 74 % 0.00 in 155 W/m2
12:20 41.5 °F 33.8 °F 29.80 in WNW 12.0 mph 20.0 mph 74 % 0.00 in 186 W/m2
12:25 41.6 °F 33.6 °F 29.80 in NW 11.0 mph 20.0 mph 73 % 0.00 in 121 W/m2
12:30 41.3 °F 32.6 °F 29.80 in WNW 12.0 mph 18.0 mph 71 % 0.00 in 102 W/m2
12:35 41.1 °F 33.1 °F 29.80 in WNW 12.0 mph 18.0 mph 73 % 0.00 in 100 W/m2
12:40 41.0 °F 32.7 °F 29.81 in NW 11.0 mph 18.0 mph 72 % 0.00 in 95 W/m2
12:45 41.0 °F 33.0 °F 29.81 in West 10.0 mph 18.0 mph 73 % 0.00 in 91 W/m2
12:55 40.9 °F 32.9 °F 29.82 in NNE 11.0 mph 11.0 mph 73 % 0.00 in 104 W/m2
13:00 40.9 °F 32.9 °F 29.82 in WNW 11.0 mph 18.0 mph 73 % 0.00 in 81 W/m2
13:05 40.9 °F 32.6 °F 29.82 in NW 11.0 mph 18.0 mph 72 % 0.00 in 88 W/m2
13:10 40.9 °F 32.6 °F 29.82 in NW 12.0 mph 12.0 mph 72 % 0.00 in 135 W/m2
13:15 41.0 °F 32.7 °F 29.82 in North 11.0 mph 18.0 mph 72 % 0.00 in 155 W/m2
13:20 41.1 °F 32.4 °F 29.82 in WNW 10.0 mph 18.0 mph 71 % 0.00 in 125 W/m2
13:25 41.2 °F 32.5 °F 29.83 in NNW 11.0 mph 18.0 mph 71 % 0.00 in 111 W/m2
13:35 41.3 °F 32.6 °F 29.83 in NW 10.0 mph 18.0 mph 71 % 0.00 in 95 W/m2
13:45 41.2 °F 32.2 °F 29.83 in NW 11.0 mph 18.0 mph 70 % 0.00 in 128 W/m2
13:50 41.3 °F 32.2 °F 29.83 in WNW 12.0 mph 12.0 mph 70 % 0.00 in 107 W/m2
13:55 41.3 °F 32.2 °F 29.83 in WNW 13.0 mph 14.0 mph 70 % 0.00 in 93 W/m2
14:00 41.2 °F 32.2 °F 29.83 in WNW 13.0 mph 13.0 mph 70 % 0.00 in 109 W/m2
14:05 41.2 °F 32.2 °F 29.84 in WNW 11.0 mph 18.0 mph 70 % 0.00 in 116 W/m2
14:10 41.3 °F 32.2 °F 29.84 in NNW 10.0 mph 10.0 mph 70 % 0.00 in 134 W/m2
14:20 41.4 °F 32.3 °F 29.85 in WNW 11.0 mph 18.0 mph 70 % 0.00 in 77 W/m2
14:25 41.3 °F 32.2 °F 29.85 in WNW 11.0 mph 18.0 mph 70 % 0.00 in 69 W/m2
14:30 41.2 °F 31.8 °F 29.85 in NW 11.0 mph 11.0 mph 69 % 0.00 in 65 W/m2
14:35 41.0 °F 31.6 °F 29.85 in WNW 12.0 mph 12.0 mph 69 % 0.00 in 60 W/m2
14:40 40.9 °F 31.5 °F 29.85 in NW 12.0 mph 18.0 mph 69 % 0.00 in 33 W/m2
14:45 40.7 °F 31.3 °F 29.86 in WNW 12.0 mph 18.0 mph 69 % 0.00 in 19 W/m2
14:50 40.6 °F 31.2 °F 29.86 in WNW 11.0 mph 11.0 mph 69 % 0.00 in 28 W/m2
15:00 40.4 °F 30.7 °F 29.87 in WNW 10.0 mph 18.0 mph 68 % 0.00 in 53 W/m2
15:05 40.4 °F 30.7 °F 29.87 in NW 13.0 mph 18.0 mph 68 % 0.00 in 42 W/m2
15:10 40.3 °F 30.6 °F 29.87 in NW 13.0 mph 13.0 mph 68 % 0.00 in 39 W/m2
15:15 40.3 °F 30.6 °F 29.87 in NW 12.0 mph 15.0 mph 68 % 0.00 in 72 W/m2
15:20 40.3 °F 30.6 °F 29.87 in WNW 12.0 mph 21.0 mph 68 % 0.00 in 56 W/m2
15:25 40.2 °F 30.5 °F 29.88 in WNW 13.0 mph 21.0 mph 68 % 0.00 in 39 W/m2
15:35 40.1 °F 30.4 °F 29.88 in WNW 10.0 mph 18.0 mph 68 % 0.00 in 35 W/m2
15:40 40.0 °F 30.3 °F 29.87 in West 10.0 mph 18.0 mph 68 % 0.00 in 23 W/m2
15:45 39.7 °F 30.0 °F 29.87 in NNW 11.0 mph 18.0 mph 68 % 0.00 in 19 W/m2
15:50 39.5 °F 29.8 °F 29.88 in WNW 12.0 mph 12.0 mph 68 % 0.00 in 16 W/m2
15:55 39.2 °F 29.5 °F 29.88 in NW 10.0 mph 18.0 mph 68 % 0.00 in 12 W/m2
16:00 39.0 °F 29.7 °F 29.89 in West 10.0 mph 18.0 mph 69 % 0.00 in 9 W/m2
16:05 38.8 °F 29.5 °F 29.89 in NW 10.0 mph 18.0 mph 69 % 0.00 in 7 W/m2
16:15 38.4 °F 29.1 °F 29.90 in WNW 10.0 mph 18.0 mph 69 % 0.00 in 5 W/m2
16:20 38.2 °F 29.3 °F 29.90 in WNW 10.0 mph 18.0 mph 70 % 0.00 in 0 W/m2
16:25 38.1 °F 29.2 °F 29.90 in NW 11.0 mph 18.0 mph 70 % 0.00 in 0 W/m2
16:30 38.0 °F 29.4 °F 29.90 in NW 11.0 mph 18.0 mph 71 % 0.00 in 0 W/m2
16:35 37.9 °F 29.3 °F 29.90 in WNW 12.0 mph 18.0 mph 71 % 0.00 in 0 W/m2
16:40 37.8 °F 29.6 °F 29.90 in NW 11.0 mph 18.0 mph 72 % 0.00 in 0 W/m2
16:50 37.5 °F 29.6 °F 29.91 in WNW 10.0 mph 10.0 mph 73 % 0.00 in 0 W/m2
16:55 37.4 °F 29.5 °F 29.91 in NW 10.0 mph 11.0 mph 73 % 0.00 in 0 W/m2
17:00 37.3 °F 29.4 °F 29.91 in West 11.0 mph 11.0 mph 73 % 0.00 in 0 W/m2
17:05 37.3 °F 29.4 °F 29.92 in NW 11.0 mph 18.0 mph 73 % 0.00 in 0 W/m2
17:10 37.2 °F 29.3 °F 29.92 in WNW 10.0 mph 18.0 mph 73 % 0.00 in 0 W/m2
17:15 37.1 °F 29.6 °F 29.92 in WNW 9.0 mph 18.0 mph 74 % 0.00 in 0 W/m2
17:20 37.0 °F 29.1 °F 29.93 in WNW 10.0 mph 10.0 mph 73 % 0.00 in 0 W/m2
17:30 36.8 °F 28.3 °F 29.93 in NW 9.0 mph 9.0 mph 71 % 0.00 in 0 W/m2
17:35 36.7 °F 28.2 °F 29.92 in NW 9.0 mph 11.0 mph 71 % 0.00 in 0 W/m2
17:40 36.5 °F 28.0 °F 29.93 in WNW 8.0 mph 8.0 mph 71 % 0.00 in 0 W/m2
17:45 36.4 °F 28.2 °F 29.93 in NW 8.0 mph 18.0 mph 72 % 0.00 in 0 W/m2
17:50 36.3 °F 28.1 °F 29.93 in NNW 7.0 mph 7.0 mph 72 % 0.00 in 0 W/m2
17:55 36.1 °F 27.9 °F 29.93 in NW 7.0 mph 18.0 mph 72 % 0.00 in 0 W/m2
18:00 35.9 °F 28.1 °F 29.93 in NW 7.0 mph 18.0 mph 73 % 0.00 in 0 W/m2
18:05 35.8 °F 28.0 °F 29.94 in WNW 7.0 mph 18.0 mph 73 % 0.00 in 0 W/m2
18:15 35.8 °F 28.3 °F 29.94 in WNW 7.0 mph 18.0 mph 74 % 0.00 in 0 W/m2
18:20 35.7 °F 28.6 °F 29.94 in WNW 6.0 mph 6.0 mph 75 % 0.00 in 0 W/m2
18:25 35.5 °F 28.7 °F 29.94 in West 5.0 mph 18.0 mph 76 % 0.00 in 0 W/m2
18:30 35.4 °F 28.9 °F 29.95 in WNW 6.0 mph 18.0 mph 77 % 0.00 in 0 W/m2
18:35 35.2 °F 28.7 °F 29.95 in NW 6.0 mph 18.0 mph 77 % 0.00 in 0 W/m2
18:45 35.1 °F 28.9 °F 29.96 in WNW 6.0 mph 18.0 mph 78 % 0.00 in 0 W/m2
18:50 35.0 °F 28.8 °F 29.96 in WNW 6.0 mph 18.0 mph 78 % 0.00 in 0 W/m2
18:55 34.9 °F 29.0 °F 29.96 in NW 6.0 mph 18.0 mph 79 % 0.00 in 0 W/m2
19:00 34.8 °F 29.0 °F 29.96 in WNW 5.0 mph 5.0 mph 79 % 0.00 in 0 W/m2
19:05 34.7 °F 28.9 °F 29.96 in NW 6.0 mph 6.0 mph 79 % 0.00 in 0 W/m2
19:10 34.7 °F 29.2 °F 29.96 in WNW 6.0 mph 18.0 mph 80 % 0.00 in 0 W/m2
19:20 34.5 °F 29.0 °F 29.97 in NW 6.0 mph 18.0 mph 80 % 0.00 in 0 W/m2
19:25 34.4 °F 28.9 °F 29.97 in NW 6.0 mph 18.0 mph 80 % 0.00 in 0 W/m2
19:30 34.3 °F 28.8 °F 29.97 in WNW 6.0 mph 18.0 mph 80 % 0.00 in 0 W/m2
19:35 34.3 °F 29.1 °F 29.97 in WNW 6.0 mph 18.0 mph 81 % 0.00 in 0 W/m2
19:40 34.1 °F 28.9 °F 29.97 in WNW 5.0 mph 18.0 mph 81 % 0.00 in 0 W/m2
19:50 33.8 °F 28.6 °F 29.96 in WNW 6.0 mph 6.0 mph 81 % 0.00 in 0 W/m2
19:55 33.7 °F 28.8 °F 29.96 in West 7.0 mph 9.0 mph 82 % 0.00 in 0 W/m2
20:00 33.6 °F 28.7 °F 29.97 in WNW 7.0 mph 18.0 mph 82 % 0.00 in 0 W/m2
20:05 33.6 °F 28.7 °F 29.97 in WNW 7.0 mph 18.0 mph 82 % 0.00 in 0 W/m2
20:10 33.5 °F 28.6 °F 29.97 in WNW 7.0 mph 7.0 mph 82 % 0.00 in 0 W/m2
20:20 33.5 °F 28.6 °F 29.97 in WNW 7.0 mph 7.0 mph 82 % 0.00 in 0 W/m2
20:25 33.4 °F 28.5 °F 29.97 in WNW 6.0 mph 18.0 mph 82 % 0.00 in 0 W/m2
20:35 33.0 °F 28.1 °F 29.98 in WNW 6.0 mph 18.0 mph 82 % 0.00 in 0 W/m2
20:40 32.9 °F 28.3 °F 29.98 in WNW 6.0 mph 6.0 mph 83 % 0.00 in 0 W/m2
20:45 32.8 °F 27.9 °F 29.98 in WNW 6.0 mph 8.0 mph 82 % 0.00 in 0 W/m2
20:50 32.7 °F 28.1 °F 29.98 in WNW 6.0 mph 6.0 mph 83 % 0.00 in 0 W/m2
20:55 32.6 °F 28.0 °F 29.99 in WNW 5.0 mph 18.0 mph 83 % 0.00 in 0 W/m2
21:00 32.5 °F 27.9 °F 29.99 in WNW 6.0 mph 18.0 mph 83 % 0.00 in 0 W/m2
21:10 32.3 °F 27.7 °F 29.99 in WNW 6.0 mph 18.0 mph 83 % 0.00 in 0 W/m2
21:15 32.2 °F 27.6 °F 29.99 in WNW 6.0 mph 18.0 mph 83 % 0.00 in 0 W/m2
21:20 32.2 °F 27.6 °F 29.99 in WNW 5.0 mph 18.0 mph 83 % 0.00 in 0 W/m2
21:25 32.2 °F 27.6 °F 29.99 in NW 5.0 mph 18.0 mph 83 % 0.00 in 0 W/m2
21:30 32.1 °F 27.2 °F 30.00 in WNW 6.0 mph 18.0 mph 82 % 0.00 in 0 W/m2
21:35 32.2 °F 27.3 °F 30.00 in NW 6.0 mph 18.0 mph 82 % 0.00 in 0 W/m2
21:40 32.4 °F 27.2 °F 30.00 in WNW 7.0 mph 7.0 mph 81 % 0.00 in 0 W/m2
21:50 32.5 °F 27.0 °F 30.00 in WNW 7.0 mph 7.0 mph 80 % 0.00 in 0 W/m2
21:55 32.5 °F 27.0 °F 29.99 in WNW 7.0 mph 18.0 mph 80 % 0.00 in 0 W/m2
22:00 32.6 °F 27.1 °F 30.00 in NW 7.0 mph 7.0 mph 80 % 0.00 in 0 W/m2
22:10 32.8 °F 27.0 °F 30.00 in NW 9.0 mph 18.0 mph 79 % 0.00 in 0 W/m2
22:15 32.8 °F 26.7 °F 30.00 in NW 8.0 mph 18.0 mph 78 % 0.00 in 0 W/m2
22:20 32.8 °F 26.7 °F 30.00 in NW 8.0 mph 8.0 mph 78 % 0.00 in 0 W/m2
22:30 32.8 °F 26.4 °F 30.00 in WNW 7.0 mph 7.0 mph 77 % 0.00 in 0 W/m2
22:35 32.7 °F 26.0 °F 30.00 in WNW 6.0 mph 10.0 mph 76 % 0.00 in 0 W/m2
22:40 32.8 °F 26.1 °F 30.00 in NW 6.0 mph 6.0 mph 76 % 0.00 in 0 W/m2
22:45 32.7 °F 25.6 °F 30.00 in WNW 6.0 mph 18.0 mph 75 % 0.00 in 0 W/m2
22:50 32.8 °F 25.7 °F 30.00 in West 7.0 mph 18.0 mph 75 % 0.00 in 0 W/m2
22:55 32.9 °F 25.8 °F 30.00 in West 9.0 mph 18.0 mph 75 % 0.00 in 0 W/m2
23:00 33.0 °F 25.6 °F 30.00 in WNW 9.0 mph 18.0 mph 74 % 0.00 in 0 W/m2
23:10 33.2 °F 25.5 °F 30.00 in WNW 9.0 mph 9.0 mph 73 % 0.00 in 0 W/m2
23:15 33.2 °F 25.1 °F 30.00 in WNW 8.0 mph 18.0 mph 72 % 0.00 in 0 W/m2
23:20 33.1 °F 25.1 °F 30.00 in West 7.0 mph 18.0 mph 72 % 0.00 in 0 W/m2
23:25 33.0 °F 25.0 °F 30.00 in WNW 7.0 mph 18.0 mph 72 % 0.00 in 0 W/m2
23:30 32.9 °F 24.5 °F 30.00 in WNW 6.0 mph 6.0 mph 71 % 0.00 in 0 W/m2
23:35 32.8 °F 24.8 °F 30.00 in WNW 6.0 mph 18.0 mph 72 % 0.00 in 0 W/m2
23:45 32.5 °F 24.5 °F 30.00 in WNW 5.0 mph 18.0 mph 72 % 0.00 in 0 W/m2
23:50 32.4 °F 24.7 °F 30.00 in West 5.0 mph 18.0 mph 73 % 0.00 in 0 W/m2
23:55 32.3 °F 24.6 °F 30.00 in WNW 5.0 mph 18.0 mph 73 % 0.00 in 0 W/m2
Delerius-Weather
Compliments of Weather Underground - 2 mb

Data updates at regular intervals.